Regional Weather Roundup
Issued by NWS

Home | Current Version | Previous Version | Text Only | Print | Product List | Glossary Off
Versions: 1 2 3 4 5 6 7 8 9 10 11 12 13 14 15 16 17 18 19 20 21 22 23 24 25 26 27 28 29 30 31 32 33 34 35 36 37 38 39 40 41 42 43 44 45 46 47 48 49 50

000
ASUS43 KOAX 222010
RWRNE

WEATHER ROUNDUP FOR NEBRASKA
NATIONAL WEATHER SERVICE OMAHA NE
300 PM CDT MON SEP 22 2014

NOTES: SATELLITE DATA IS BEING USED TO AUGMENT CLOUD COVER ABOVE
       12000 FEET.
       "FAIR" INDICATES FEW OR NO CLOUDS BELOW 12,000 FEET WITH NO
       SIGNIFICANT WEATHER AND/OR OBSTRUCTIONS TO VISIBILITY.

  * THESE STATIONS DO NOT REPORT WEATHER SUCH AS RAIN...SNOW OR FOG.

NEZ001>004-019>022-054>056-222100-
NEBRASKA PANHANDLE

CITY           SKY/WX    TMP DP  RH WIND       PRES   REMARKS
SCOTTSBLUFF    PTSUNNY   77  52  41 SE12      30.06F
ALLIANCE       CLOUDY    68  54  60 SE20      30.10F
CHADRON        CLOUDY    74  53  48 S24G30    30.00F
KIMBALL        PTSUNNY   76  50  40 S12G21    30.11S
SIDNEY         CLOUDY    69  53  56 S21G29    30.13F
$$

NEZ057>060-069>072-079>082-222100-
SOUTHWEST NEBRASKA

CITY           SKY/WX    TMP DP  RH WIND       PRES   REMARKS
NORTH PLATTE   LGT RAIN  59  52  77 SE8       30.17F
IMPERIAL       CLOUDY    64  54  69 SE13      30.14F
LEXINGTON      CLOUDY    73  47  40 S17       30.20F
MCCOOK         CLOUDY    76  44  32 SE15G24   30.18F
OGALLALA       LGT RAIN  59  55  88 S10       30.15F
$$

NEZ005>010-023>029-035>040-094-222100-
NORTH CENTRAL NEBRASKA

CITY           SKY/WX    TMP DP  RH WIND       PRES   REMARKS
VALENTINE      PTSUNNY   71  45  39 S16G29    30.11F
AINSWORTH      PTSUNNY   69  45  41 S17       30.15F
BROKEN BOW     PTSUNNY   73  47  39 S18G25    30.19F
O`NEILL        PTSUNNY   74  50  42 S17G23    30.18F
ORD            PTSUNNY   72  49  44 S14G21    30.19F
THEDFORD       DRIZZLE   70  47  44 S17G28    30.17S
$$

NEZ041-046>049-061>064-073>077-083>087-222100-
SOUTH CENTRAL NEBRASKA

CITY           SKY/WX    TMP DP  RH WIND       PRES   REMARKS
GRAND ISLAND   PTSUNNY   73  49  42 S13       30.23F
AURORA         MOSUNNY   73  45  36 SW9       30.23F
HASTINGS       MOSUNNY   73  45  36 S10       30.23F
HEBRON         PTSUNNY   74  42  31 S7        30.24F
HOLDREGE       MOSUNNY   72  45  38 S15       30.22F
KEARNEY *      MOSUNNY   72  48  43 SE15      30.23F
YORK           MOSUNNY   72  50  46 S8        30.23F
$$

NEZ011>018-030>034-042>045-222100-
NORTHEAST NEBRASKA

CITY           SKY/WX    TMP DP  RH WIND       PRES   REMARKS
NORFOLK        MOSUNNY   72  49  44 S14       30.21F
ALBION         MOSUNNY   73  47  38 S15       30.21F
BLAIR          SUNNY     74  47  38 S13       30.24F
COLUMBUS *     MOSUNNY   72  46  40 S9        30.24F
FREMONT        SUNNY     73  44  35 S8        30.24F
TEKAMAH        SUNNY     75  47  36 S10       30.23F
WAYNE          MOSUNNY   74  48  39 S9G16     30.22F
$$

NEZ050>053-065>068-078-088>093-222100-
SOUTHEAST NEBRASKA

CITY           SKY/WX    TMP DP  RH WIND       PRES   REMARKS
LINCOLN        SUNNY     75  47  36 S7        30.24F
OMAHA EPPLEY   MOSUNNY   72  49  44 SE7       30.24F
BEATRICE       SUNNY     74  46  36 S8        30.23F
FALLS CITY     SUNNY     75  49  39 CALM      30.24F
NEBRASKA CITY    N/A     72  39  29 S6        30.25F
PLATTSMOUTH    SUNNY     72  45  37 S5        30.25F
$$

NEZ044-045-051>053-067-222100-
OMAHA AREA

CITY           SKY/WX    TMP DP  RH WIND       PRES   REMARKS
OMAHA EPPLEY   MOSUNNY   72  49  44 SE7       30.24F
BLAIR          SUNNY     74  47  38 S13       30.24F
FREMONT        SUNNY     73  44  35 S8        30.24F
MILLARD        SUNNY     73  50  45 SE5       30.23F
OFFUTT AFB     SUNNY     73  52  48 S7        30.24F
PLATTSMOUTH    SUNNY     72  45  37 S5        30.25F
WAHOO          FAIR      74  42  30 S7        30.23F
$$



USA.gov is the U.S. government's official web portal to all federal, state and local government web resources and services.